| time (UTC) | temp F | wind direction | speed MPH | gust MPH | rain 1hr in | rain 24hr in | rain mn in | humidity % | barometer mb |
| 20260831040633 | 70 | 273 | 2.0 | 9.0 | 0.00 | 0.00 | 0.00 | 31 | 1028.0 |
| 20260831040128 | 70 | 282 | 2.0 | 9.0 | 0.00 | 0.00 | 0.00 | 30 | 1028.0 |
| 20260831035624 | 70 | 54 | 2.0 | 7.0 | 0.00 | 0.00 | 0.00 | 28 | 1028.1 |
| 20260831035115 | 70 | 5 | 2.0 | 7.0 | 0.00 | 0.00 | 0.00 | 33 | 1028.2 |
| 20260831034611 | 69 | 43 | 2.0 | 5.0 | 0.00 | 0.00 | 0.00 | 33 | 1028.2 |
| 20260831034330 | 70 | 299 | 1.0 | 6.0 | 0.00 | 0.00 | 0.00 | 35 | 1028.2 |
| 20260831033557 | 70 | 317 | 1.0 | 6.0 | 0.00 | 0.00 | 0.00 | 34 | 1028.4 |
| 20260831033058 | 70 | 336 | 1.0 | 6.0 | 0.00 | 0.00 | 0.00 | 34 | 1028.4 |
| 20260831032556 | 70 | 332 | 1.0 | 6.0 | 0.00 | 0.00 | 0.00 | 35 | 1028.4 |
| 20260831032056 | 70 | 52 | 1.0 | 5.0 | 0.00 | 0.00 | 0.00 | 33 | 1028.5 |
| 20260831031556 | 70 | 339 | 1.0 | 4.0 | 0.00 | 0.00 | 0.00 | 34 | 1028.5 |
| 20260831031314 | 70 | 25 | 1.0 | 5.0 | 0.00 | 0.00 | 0.00 | 32 | 1028.7 |
| 20260831030556 | 69 | 332 | 1.0 | 5.0 | 0.00 | 0.00 | 0.00 | 32 | 1028.7 |
| 20260831030054 | 70 | 284 | 1.0 | 5.0 | 0.00 | 0.00 | 0.00 | 32 | 1028.8 |
| 20260831025554 | 69 | 281 | 1.0 | 5.0 | 0.00 | 0.00 | 0.00 | 28 | 1028.9 |
| 20260831025056 | 69 | 312 | 1.0 | 5.0 | 0.00 | 0.00 | 0.00 | 29 | 1028.9 |
| 20260831024554 | 69 | 254 | 1.0 | 5.0 | 0.00 | 0.00 | 0.00 | 27 | 1029.0 |
| 20260831024054 | 69 | 235 | 1.0 | 4.0 | 0.00 | 0.00 | 0.00 | 29 | 1029.0 |
| 20260831023554 | 69 | 52 | 1.0 | 4.0 | 0.00 | 0.00 | 0.00 | 27 | 1029.0 |
| 20260831023054 | 69 | 340 | 0.0 | 4.0 | 0.00 | 0.00 | 0.00 | 29 | 1029.1 |
| 20260831022553 | 69 | 271 | 0.0 | 4.0 | 0.00 | 0.00 | 0.00 | 28 | 1029.2 |
| 20260831022054 | 69 | 315 | 0.0 | 4.0 | 0.00 | 0.00 | 0.00 | 30 | 1029.3 |
| 20260831021553 | 68 | 340 | 1.0 | 4.0 | 0.00 | 0.00 | 0.00 | 34 | 1029.4 |
| 20260831021316 | 68 | 312 | 1.0 | 4.0 | 0.00 | 0.00 | 0.00 | 33 | 1029.5 |
| 20260831020547 | 68 | 263 | 1.0 | 4.0 | 0.00 | 0.00 | 0.00 | 37 | 1029.5 |
| 20260831020045 | 68 | 19 | 0.0 | 4.0 | 0.00 | 0.00 | 0.00 | 36 | 1029.5 |
| 20260831015537 | 67 | 275 | 0.0 | 3.0 | 0.00 | 0.00 | 0.00 | 42 | 1029.6 |
| 20260831015031 | 67 | 16 | 1.0 | 4.0 | 0.00 | 0.00 | 0.00 | 42 | 1029.7 |
| 20260831014525 | 67 | 44 | 0.0 | 4.0 | 0.00 | 0.00 | 0.00 | 42 | 1029.8 |
| 20260831014019 | 66 | 311 | 1.0 | 4.0 | 0.00 | 0.00 | 0.00 | 46 | 1029.8 |
| 20260831013516 | 66 | 64 | 1.0 | 4.0 | 0.00 | 0.00 | 0.00 | 46 | 1029.8 |
| 20260831013016 | 66 | 263 | 0.0 | 3.0 | 0.00 | 0.00 | 0.00 | 47 | 1029.9 |
| 20260831012516 | 65 | 315 | 0.0 | 3.0 | 0.00 | 0.00 | 0.00 | 49 | 1030.1 |
| 20260831012016 | 65 | 275 | 0.0 | 3.0 | 0.00 | 0.00 | 0.00 | 49 | 1030.2 |
| 20260831011733 | 64 | 287 | 0.0 | 2.0 | 0.00 | 0.00 | 0.00 | 50 | 1030.3 |
| 20260831011016 | 64 | 271 | 0.0 | 3.0 | 0.00 | 0.00 | 0.00 | 52 | 1030.4 |
| 20260831010514 | 63 | 39 | 0.0 | 3.0 | 0.00 | 0.00 | 0.00 | 51 | 1030.5 |
| 20260831010014 | 63 | 279 | 0.0 | 2.0 | 0.00 | 0.00 | 0.00 | 53 | 1030.6 |
| 20260831005512 | 62 | 299 | 0.0 | 2.0 | 0.00 | 0.00 | 0.00 | 54 | 1030.6 |
| 20260831005012 | 61 | 313 | 0.0 | 2.0 | 0.00 | 0.00 | 0.00 | 56 | 1030.7 |
| 20260831004507 | 61 | 67 | 0.0 | 2.0 | 0.00 | 0.00 | 0.00 | 56 | 1030.7 |
| 20260831004010 | 60 | 300 | 0.0 | 1.0 | 0.00 | 0.00 | 0.00 | 58 | 1030.7 |
| 20260831003510 | 60 | 261 | 0.0 | 1.0 | 0.00 | 0.00 | 0.00 | 58 | 1030.8 |
| 20260831003235 | 60 | 296 | 0.0 | 3.0 | 0.00 | 0.00 | 0.00 | 58 | 1030.8 |
| 20260831002506 | 59 | 216 | 0.0 | 3.0 | 0.00 | 0.00 | 0.00 | 59 | 1030.9 |
| 20260831002009 | 59 | 261 | 0.0 | 1.0 | 0.00 | 0.00 | 0.00 | 60 | 1031.0 |
| 20260831001720 | 58 | 322 | 0.0 | 1.0 | 0.00 | 0.00 | 0.00 | 60 | 1031.0 |
| 20260831001001 | 57 | 212 | 0.0 | 0.0 | 0.00 | 0.00 | 0.00 | 63 | 1031.0 |
| 20260831000503 | 56 | 215 | 0.0 | 3.0 | 0.00 | 0.00 | 0.00 | 63 | 1031.0 |
| 20260831000002 | 55 | 185 | 0.0 | 3.0 | 0.00 | 0.00 | 0.00 | 63 | 1031.1 |
| 20260830235502 | 55 | 230 | 0.0 | 1.0 | 0.00 | 0.00 | 0.00 | 64 | 1031.2 |
| 20260830235449 | 54 | 207 | 0.0 | 1.0 | 0.00 | 0.00 | 0.00 | 64 | 1031.2 |
| 20260830234502 | 54 | 262 | 0.0 | 1.0 | 0.00 | 0.00 | 0.00 | 65 | 1031.2 |
| 20260830234001 | 53 | 272 | 0.0 | 2.0 | 0.00 | 0.00 | 0.00 | 66 | 1031.3 |
| 20260830233502 | 53 | 302 | 0.0 | 3.0 | 0.00 | 0.00 | 0.00 | 65 | 1031.3 |
| 20260830232959 | 52 | 206 | 0.0 | 3.0 | 0.00 | 0.00 | 0.00 | 65 | 1031.3 |
| 20260830232717 | 52 | 265 | 0.0 | 1.0 | 0.00 | 0.00 | 0.00 | 65 | 1031.3 |
| 20260830231959 | 52 | 294 | 0.0 | 1.0 | 0.00 | 0.00 | 0.00 | 67 | 1031.2 |
| 20260830231458 | 51 | 292 | 0.0 | 2.0 | 0.00 | 0.00 | 0.00 | 69 | 1031.3 |
| 20260830231227 | 51 | 303 | 0.0 | 2.0 | 0.00 | 0.00 | 0.00 | 69 | 1031.3 |
| 20260830230458 | 51 | 335 | 0.0 | 0.0 | 0.00 | 0.00 | 0.00 | 70 | 1031.3 |
| 20260830225959 | 50 | 336 | 0.0 | 0.0 | 0.00 | 0.00 | 0.00 | 73 | 1031.3 |
| 20260830225458 | 49 | 335 | 0.0 | 0.0 | 0.00 | 0.00 | 0.00 | 73 | 1031.4 |
| 20260830225001 | 49 | 336 | 0.0 | 0.0 | 0.00 | 0.00 | 0.00 | 74 | 1031.4 |
| 20260830224457 | 48 | 335 | 0.0 | 0.0 | 0.00 | 0.00 | 0.00 | 75 | 1031.3 |
| 20260830223959 | 48 | 335 | 0.0 | 0.0 | 0.00 | 0.00 | 0.00 | 75 | 1031.3 |
| 20260830223457 | 48 | 335 | 0.0 | 0.0 | 0.00 | 0.00 | 0.00 | 77 | 1031.3 |
| 20260830222957 | 47 | 39 | 0.0 | 0.0 | 0.00 | 0.00 | 0.00 | 79 | 1031.4 |
| 20260830222457 | 46 | 50 | 0.0 | 0.0 | 0.00 | 0.00 | 0.00 | 81 | 1031.3 |
| 20260830221955 | 45 | 50 | 0.0 | 0.0 | 0.00 | 0.00 | 0.00 | 82 | 1031.4 |
| 20260830221452 | 45 | 50 | 0.0 | 0.0 | 0.00 | 0.00 | 0.00 | 82 | 1031.3 |
| 20260830220949 | 45 | 50 | 0.0 | 0.0 | 0.00 | 0.00 | 0.00 | 82 | 1031.2 |
| 20260830220713 | 45 | 50 | 0.0 | 0.0 | 0.00 | 0.00 | 0.00 | 82 | 1031.2 |
| 20260830220207 | 44 | 50 | 0.0 | 0.0 | 0.00 | 0.00 | 0.00 | 85 | 1031.2 |
| 20260830215445 | 43 | 50 | 0.0 | 0.0 | 0.00 | 0.00 | 0.00 | 88 | 1031.2 |
| 20260830214942 | 42 | 50 | 0.0 | 0.0 | 0.00 | 0.00 | 0.00 | 89 | 1031.1 |
| 20260830214440 | 41 | 50 | 0.0 | 0.0 | 0.00 | 0.00 | 0.00 | 89 | 1031.2 |
| 20260830213947 | 41 | 50 | 0.0 | 0.0 | 0.00 | 0.00 | 0.00 | 92 | 1031.0 |
| 20260830213435 | 40 | 50 | 0.0 | 0.0 | 0.00 | 0.00 | 0.00 | 94 | 1031.1 |
| 20260830212933 | 39 | 50 | 0.0 | 0.0 | 0.00 | 0.00 | 0.00 | 94 | 1031.1 |
| 20260830212433 | 38 | 50 | 0.0 | 0.0 | 0.00 | 0.00 | 0.00 | 94 | 1031.0 |
| 20260830212155 | 38 | 50 | 0.0 | 0.0 | 0.00 | 0.00 | 0.00 | 94 | 1030.9 |
| 20260830211421 | 38 | 50 | 0.0 | 0.0 | 0.00 | 0.00 | 0.00 | 94 | 1030.9 |
| 20260830210915 | 37 | 50 | 0.0 | 0.0 | 0.00 | 0.00 | 0.00 | 94 | 1030.8 |
| 20260830210409 | 37 | 50 | 0.0 | 0.0 | 0.00 | 0.00 | 0.00 | 94 | 1030.7 |
| 20260830210133 | 37 | 50 | 0.0 | 0.0 | 0.00 | 0.00 | 0.00 | 94 | 1030.7 |
| 20260830205619 | 36 | 50 | 0.0 | 0.0 | 0.00 | 0.00 | 0.00 | 93 | 1030.6 |
| 20260830204850 | 37 | 50 | 0.0 | 0.0 | 0.00 | 0.01 | 0.00 | 93 | 1030.5 |
| 20260830204350 | 37 | 50 | 0.0 | 0.0 | 0.00 | 0.01 | 0.00 | 94 | 1030.5 |
| 20260830203850 | 37 | 50 | 0.0 | 0.0 | 0.00 | 0.01 | 0.00 | 94 | 1030.5 |
| 20260830203332 | 37 | 50 | 0.0 | 0.0 | 0.00 | 0.01 | 0.00 | 93 | 1030.4 |
| 20260830202829 | 37 | 50 | 0.0 | 1.0 | 0.00 | 0.01 | 0.00 | 94 | 1030.4 |
| 20260830202321 | 37 | 50 | 0.0 | 1.0 | 0.00 | 0.01 | 0.00 | 94 | 1030.4 |
| 20260830201815 | 36 | 36 | 0.0 | 0.0 | 0.00 | 0.01 | 0.00 | 94 | 1030.4 |
| 20260830201315 | 36 | 36 | 0.0 | 0.0 | 0.00 | 0.01 | 0.00 | 93 | 1030.3 |
| 20260830200805 | 36 | 36 | 0.0 | 0.0 | 0.00 | 0.01 | 0.00 | 93 | 1030.3 |
| 20260830200517 | 36 | 36 | 0.0 | 0.0 | 0.00 | 0.01 | 0.00 | 93 | 1030.2 |
| 20260830200016 | 36 | 36 | 0.0 | 0.0 | 0.00 | 0.01 | 0.00 | 93 | 1030.2 |
| 20260830195245 | 37 | 36 | 0.0 | 0.0 | 0.00 | 0.01 | 0.00 | 93 | 1030.2 |
| 20260830195004 | 37 | 36 | 0.0 | 0.0 | 0.00 | 0.01 | 0.00 | 93 | 1030.1 |
| 20260830194232 | 37 | 36 | 0.0 | 0.0 | 0.00 | 0.01 | 0.00 | 93 | 1030.1 |
| 20260830193729 | 37 | 36 | 0.0 | 0.0 | 0.00 | 0.01 | 0.00 | 93 | 1030.1 |
| 20260830193221 | 37 | 36 | 0.0 | 0.0 | 0.00 | 0.01 | 0.00 | 93 | 1030.1 |
| 20260830192715 | 37 | 36 | 0.0 | 0.0 | 0.00 | 0.01 | 0.00 | 93 | 1030.1 |
| 20260830192212 | 37 | 36 | 0.0 | 0.0 | 0.00 | 0.01 | 0.00 | 93 | 1030.1 |
| 20260830192146 | 37 | 36 | 0.0 | 0.0 | 0.00 | 0.01 | 0.00 | 93 | 1029.9 |
| 20260830191157 | 37 | 36 | 0.0 | 0.0 | 0.00 | 0.01 | 0.00 | 93 | 1029.9 |
| 20260830190651 | 38 | 36 | 0.0 | 0.0 | 0.00 | 0.01 | 0.00 | 93 | 1029.8 |
| 20260830190144 | 38 | 36 | 0.0 | 0.0 | 0.00 | 0.01 | 0.00 | 93 | 1029.8 |
| 20260830185640 | 38 | 36 | 0.0 | 0.0 | 0.00 | 0.01 | 0.00 | 93 | 1029.8 |
| 20260830185134 | 38 | 36 | 0.0 | 0.0 | 0.00 | 0.01 | 0.00 | 93 | 1029.8 |
| 20260830184627 | 38 | 36 | 0.0 | 0.0 | 0.00 | 0.01 | 0.00 | 93 | 1029.8 |
| 20260830184121 | 38 | 36 | 0.0 | 1.0 | 0.00 | 0.01 | 0.00 | 93 | 1029.7 |
| 20260830183614 | 38 | 36 | 0.0 | 1.0 | 0.00 | 0.01 | 0.00 | 93 | 1029.7 |
| 20260830183110 | 38 | 36 | 0.0 | 1.0 | 0.00 | 0.01 | 0.00 | 93 | 1029.7 |
| 20260830182602 | 38 | 36 | 0.0 | 1.0 | 0.00 | 0.01 | 0.00 | 92 | 1029.7 |
| 20260830182056 | 38 | 36 | 0.0 | 0.0 | 0.00 | 0.01 | 0.00 | 93 | 1029.7 |
| 20260830181551 | 38 | 36 | 0.0 | 0.0 | 0.00 | 0.01 | 0.00 | 93 | 1029.7 |
| 20260830181045 | 38 | 36 | 0.0 | 0.0 | 0.00 | 0.01 | 0.00 | 93 | 1029.6 |
| 20260830180549 | 38 | 36 | 0.0 | 0.0 | 0.00 | 0.01 | 0.00 | 93 | 1029.7 |
| 20260830180033 | 39 | 36 | 0.0 | 0.0 | 0.00 | 0.01 | 0.00 | 92 | 1029.6 |
| 20260830175528 | 39 | 36 | 0.0 | 0.0 | 0.00 | 0.01 | 0.00 | 92 | 1029.6 |
| 20260830175247 | 38 | 36 | 0.0 | 0.0 | 0.00 | 0.01 | 0.00 | 92 | 1029.6 |
| 20260830174746 | 39 | 36 | 0.0 | 0.0 | 0.00 | 0.01 | 0.00 | 92 | 1029.5 |
| 20260830174022 | 39 | 36 | 0.0 | 0.0 | 0.00 | 0.01 | 0.00 | 92 | 1029.4 |
| 20260830173503 | 39 | 36 | 0.0 | 0.0 | 0.00 | 0.01 | 0.00 | 92 | 1029.3 |
| 20260830172956 | 39 | 36 | 0.0 | 0.0 | 0.00 | 0.01 | 0.00 | 91 | 1029.3 |
| 20260830172450 | 40 | 36 | 0.0 | 0.0 | 0.00 | 0.01 | 0.00 | 92 | 1029.4 |
| 20260830171945 | 40 | 36 | 0.0 | 0.0 | 0.00 | 0.01 | 0.00 | 92 | 1029.4 |
| 20260830171704 | 40 | 36 | 0.0 | 0.0 | 0.00 | 0.01 | 0.00 | 92 | 1029.4 |
| 20260830170936 | 40 | 36 | 0.0 | 0.0 | 0.00 | 0.01 | 0.00 | 92 | 1029.3 |
| 20260830170430 | 40 | 36 | 0.0 | 0.0 | 0.00 | 0.01 | 0.00 | 92 | 1029.4 |
| 20260830165920 | 40 | 36 | 0.0 | 0.0 | 0.00 | 0.01 | 0.00 | 92 | 1029.4 |
| 20260830165415 | 40 | 36 | 0.0 | 0.0 | 0.00 | 0.01 | 0.00 | 92 | 1029.4 |
| 20260830164914 | 40 | 36 | 0.0 | 0.0 | 0.00 | 0.01 | 0.00 | 92 | 1029.5 |
| 20260830164626 | 40 | 36 | 0.0 | 0.0 | 0.00 | 0.01 | 0.00 | 92 | 1029.6 |
| 20260830163858 | 40 | 36 | 0.0 | 0.0 | 0.00 | 0.01 | 0.00 | 92 | 1029.7 |
| 20260830163353 | 40 | 36 | 0.0 | 0.0 | 0.00 | 0.01 | 0.00 | 92 | 1029.6 |
| 20260830163107 | 40 | 36 | 0.0 | 0.0 | 0.00 | 0.01 | 0.00 | 92 | 1029.7 |
| 20260830162342 | 40 | 36 | 0.0 | 0.0 | 0.00 | 0.01 | 0.00 | 92 | 1029.7 |
| 20260830162054 | 40 | 36 | 0.0 | 0.0 | 0.00 | 0.01 | 0.00 | 92 | 1029.7 |
| 20260830161328 | 41 | 36 | 0.0 | 0.0 | 0.00 | 0.01 | 0.00 | 92 | 1029.8 |
| 20260830160821 | 41 | 36 | 0.0 | 0.0 | 0.00 | 0.01 | 0.00 | 92 | 1029.9 |
| 20260830160315 | 41 | 36 | 0.0 | 0.0 | 0.00 | 0.01 | 0.00 | 92 | 1029.9 |
| 20260830160033 | 41 | 36 | 0.0 | 1.0 | 0.00 | 0.01 | 0.00 | 92 | 1029.9 |
| 20260830155306 | 41 | 36 | 0.0 | 1.0 | 0.00 | 0.01 | 0.00 | 92 | 1029.9 |
| 20260830154759 | 41 | 36 | 0.0 | 0.0 | 0.00 | 0.01 | 0.00 | 92 | 1030.1 |
| 20260830154745 | 41 | 36 | 0.0 | 0.0 | 0.00 | 0.01 | 0.00 | 91 | 1030.1 |
| 20260830153745 | 42 | 36 | 0.0 | 0.0 | 0.00 | 0.01 | 0.00 | 92 | 1030.1 |
| 20260830153239 | 42 | 36 | 0.0 | 0.0 | 0.00 | 0.01 | 0.00 | 92 | 1030.1 |
| 20260830152733 | 42 | 36 | 0.0 | 0.0 | 0.00 | 0.01 | 0.00 | 92 | 1030.1 |
| 20260830152228 | 42 | 36 | 0.0 | 0.0 | 0.00 | 0.01 | 0.00 | 92 | 1030.1 |
| 20260830151946 | 42 | 36 | 0.0 | 0.0 | 0.00 | 0.01 | 0.00 | 92 | 1030.1 |
| 20260830151217 | 42 | 36 | 0.0 | 0.0 | 0.00 | 0.01 | 0.00 | 92 | 1030.1 |
| 20260830150203 | 42 | 36 | 0.0 | 0.0 | 0.00 | 0.01 | 0.00 | 92 | 1030.1 |
| 20260830145703 | 43 | 36 | 0.0 | 0.0 | 0.00 | 0.01 | 0.00 | 92 | 1030.2 |
| 20260830145200 | 43 | 36 | 0.0 | 0.0 | 0.00 | 0.01 | 0.00 | 92 | 1030.2 |
| 20260830144701 | 43 | 36 | 0.0 | 0.0 | 0.00 | 0.01 | 0.00 | 92 | 1030.2 |
| 20260830144203 | 43 | 36 | 0.0 | 0.0 | 0.00 | 0.01 | 0.00 | 92 | 1030.2 |
| 20260830143659 | 43 | 36 | 0.0 | 0.0 | 0.00 | 0.01 | 0.00 | 92 | 1030.2 |
| 20260830143200 | 44 | 36 | 0.0 | 0.0 | 0.00 | 0.01 | 0.00 | 92 | 1030.2 |
| 20260830142658 | 44 | 36 | 0.0 | 0.0 | 0.00 | 0.01 | 0.00 | 92 | 1030.2 |
| 20260830142159 | 44 | 36 | 0.0 | 0.0 | 0.00 | 0.01 | 0.00 | 92 | 1030.3 |
| 20260830141659 | 44 | 36 | 0.0 | 1.0 | 0.00 | 0.01 | 0.00 | 92 | 1030.4 |
| 20260830141419 | 44 | 36 | 0.0 | 1.0 | 0.00 | 0.01 | 0.00 | 92 | 1030.3 |
| 20260830140659 | 44 | 36 | 0.0 | 0.0 | 0.00 | 0.01 | 0.00 | 92 | 1030.3 |
| 20260830140159 | 44 | 36 | 0.0 | 0.0 | 0.00 | 0.01 | 0.00 | 91 | 1030.3 |
| 20260830135654 | 44 | 36 | 0.0 | 0.0 | 0.00 | 0.01 | 0.01 | 90 | 1030.2 |
| 20260830135146 | 44 | 36 | 0.0 | 0.0 | 0.00 | 0.01 | 0.01 | 90 | 1030.4 |
| 20260830134643 | 45 | 36 | 0.0 | 0.0 | 0.00 | 0.01 | 0.01 | 91 | 1030.4 |
| 20260830134137 | 45 | 36 | 0.0 | 0.0 | 0.00 | 0.01 | 0.01 | 90 | 1030.3 |
| 20260830133629 | 45 | 36 | 0.0 | 0.0 | 0.00 | 0.01 | 0.01 | 91 | 1030.3 |
| 20260830133124 | 45 | 36 | 0.0 | 0.0 | 0.00 | 0.01 | 0.01 | 91 | 1030.4 |
| 20260830132617 | 45 | 36 | 0.0 | 0.0 | 0.00 | 0.01 | 0.01 | 90 | 1030.5 |
| 20260830132113 | 45 | 36 | 0.0 | 0.0 | 0.00 | 0.01 | 0.01 | 90 | 1030.5 |
| 20260830131605 | 45 | 36 | 0.0 | 0.0 | 0.00 | 0.01 | 0.01 | 89 | 1030.5 |
| 20260830131059 | 45 | 36 | 0.0 | 0.0 | 0.00 | 0.01 | 0.01 | 89 | 1030.6 |
| 20260830130554 | 46 | 36 | 0.0 | 0.0 | 0.00 | 0.01 | 0.01 | 89 | 1030.6 |
| 20260830130048 | 46 | 36 | 0.0 | 1.0 | 0.00 | 0.01 | 0.01 | 89 | 1030.6 |
| 20260830125541 | 46 | 36 | 0.0 | 1.0 | 0.00 | 0.01 | 0.01 | 89 | 1030.6 |
| 20260830125035 | 46 | 36 | 0.0 | 0.0 | 0.00 | 0.01 | 0.01 | 89 | 1030.6 |
| 20260830124529 | 46 | 36 | 0.0 | 0.0 | 0.00 | 0.01 | 0.01 | 88 | 1030.5 |
| 20260830124246 | 46 | 36 | 0.0 | 0.0 | 0.00 | 0.01 | 0.01 | 88 | 1030.5 |
| 20260830123518 | 46 | 36 | 0.0 | 0.0 | 0.00 | 0.01 | 0.01 | 88 | 1030.4 |
| 20260830123011 | 46 | 36 | 0.0 | 0.0 | 0.00 | 0.01 | 0.01 | 88 | 1030.4 |
| 20260830122505 | 46 | 36 | 0.0 | 0.0 | 0.00 | 0.01 | 0.01 | 87 | 1030.4 |
| 20260830121958 | 47 | 36 | 0.0 | 0.0 | 0.00 | 0.01 | 0.01 | 87 | 1030.4 |
| 20260830121454 | 47 | 36 | 0.0 | 0.0 | 0.00 | 0.01 | 0.01 | 87 | 1030.4 |
| 20260830120947 | 47 | 36 | 0.0 | 0.0 | 0.00 | 0.01 | 0.01 | 87 | 1030.5 |
| 20260830120448 | 47 | 36 | 0.0 | 0.0 | 0.00 | 0.01 | 0.01 | 87 | 1030.4 |
| 20260830115936 | 47 | 36 | 0.0 | 0.0 | 0.00 | 0.01 | 0.01 | 86 | 1030.4 |
| 20260830115429 | 47 | 36 | 0.0 | 0.0 | 0.00 | 0.01 | 0.01 | 86 | 1030.3 |
| 20260830114923 | 47 | 36 | 0.0 | 0.0 | 0.00 | 0.01 | 0.01 | 85 | 1030.3 |
| 20260830114417 | 48 | 36 | 0.0 | 0.0 | 0.00 | 0.01 | 0.01 | 85 | 1030.3 |
| 20260830113920 | 48 | 36 | 0.0 | 0.0 | 0.00 | 0.01 | 0.01 | 85 | 1030.3 |
| 20260830113404 | 48 | 36 | 0.0 | 0.0 | 0.00 | 0.01 | 0.01 | 84 | 1030.2 |
| 20260830112859 | 48 | 36 | 0.0 | 0.0 | 0.00 | 0.01 | 0.01 | 84 | 1030.3 |
| 20260830112354 | 48 | 36 | 0.0 | 0.0 | 0.00 | 0.01 | 0.01 | 84 | 1030.3 |
| 20260830112116 | 49 | 36 | 0.0 | 0.0 | 0.00 | 0.01 | 0.01 | 84 | 1030.2 |
| 20260830111347 | 49 | 36 | 0.0 | 0.0 | 0.00 | 0.01 | 0.01 | 84 | 1030.1 |
| 20260830110835 | 49 | 36 | 0.0 | 0.0 | 0.00 | 0.01 | 0.01 | 83 | 1029.9 |
| 20260830110329 | 49 | 36 | 0.0 | 1.0 | 0.00 | 0.01 | 0.01 | 83 | 1029.9 |
| 20260830105823 | 49 | 36 | 0.0 | 1.0 | 0.00 | 0.01 | 0.01 | 83 | 1029.8 |
| 20260830105319 | 49 | 36 | 0.0 | 0.0 | 0.00 | 0.01 | 0.01 | 83 | 1029.7 |
| 20260830104814 | 49 | 36 | 0.0 | 0.0 | 0.00 | 0.01 | 0.01 | 83 | 1029.7 |
| 20260830104529 | 50 | 36 | 0.0 | 0.0 | 0.00 | 0.01 | 0.01 | 82 | 1029.7 |
| 20260830103759 | 50 | 36 | 0.0 | 0.0 | 0.00 | 0.01 | 0.01 | 82 | 1029.6 |
| 20260830103255 | 50 | 36 | 0.0 | 0.0 | 0.00 | 0.01 | 0.01 | 81 | 1029.6 |
| 20260830102748 | 51 | 36 | 0.0 | 0.0 | 0.00 | 0.01 | 0.01 | 80 | 1029.6 |
| 20260830102241 | 51 | 36 | 0.0 | 0.0 | 0.00 | 0.01 | 0.01 | 80 | 1029.5 |
| 20260830101743 | 51 | 36 | 0.0 | 0.0 | 0.00 | 0.01 | 0.01 | 81 | 1029.4 |
| 20260830101240 | 51 | 36 | 0.0 | 0.0 | 0.00 | 0.01 | 0.01 | 80 | 1029.4 |
| 20260830100740 | 51 | 36 | 0.0 | 0.0 | 0.00 | 0.01 | 0.01 | 80 | 1029.3 |
| 20260830100457 | 51 | 36 | 0.0 | 0.0 | 0.00 | 0.01 | 0.01 | 80 | 1029.3 |
| 20260830095733 | 51 | 36 | 0.0 | 0.0 | 0.00 | 0.01 | 0.01 | 79 | 1029.3 |
| 20260830095233 | 51 | 36 | 0.0 | 0.0 | 0.00 | 0.01 | 0.01 | 79 | 1029.2 |
| 20260830094734 | 51 | 36 | 0.0 | 0.0 | 0.00 | 0.01 | 0.01 | 79 | 1029.2 |
| 20260830094232 | 52 | 36 | 0.0 | 0.0 | 0.00 | 0.01 | 0.01 | 78 | 1029.3 |
| 20260830093736 | 52 | 36 | 0.0 | 1.0 | 0.00 | 0.01 | 0.01 | 77 | 1029.2 |
| 20260830093728 | 52 | 36 | 0.0 | 1.0 | 0.00 | 0.01 | 0.01 | 77 | 1029.3 |
| 20260830092732 | 52 | 36 | 0.0 | 0.0 | 0.00 | 0.01 | 0.01 | 77 | 1029.3 |
| 20260830092229 | 53 | 36 | 0.0 | 0.0 | 0.00 | 0.01 | 0.01 | 76 | 1029.1 |
| 20260830091731 | 53 | 36 | 0.0 | 0.0 | 0.00 | 0.01 | 0.01 | 76 | 1029.0 |
| 20260830091448 | 53 | 35 | 0.0 | 0.0 | 0.00 | 0.01 | 0.01 | 75 | 1029.0 |
| 20260830090726 | 53 | 35 | 0.0 | 0.0 | 0.00 | 0.01 | 0.01 | 75 | 1029.1 |
| 20260830090224 | 54 | 35 | 0.0 | 0.0 | 0.00 | 0.01 | 0.01 | 74 | 1029.0 |
| 20260830085954 | 54 | 35 | 0.0 | 0.0 | 0.00 | 0.01 | 0.01 | 73 | 1029.0 |
| 20260830085225 | 55 | 35 | 0.0 | 0.0 | 0.00 | 0.01 | 0.01 | 72 | 1029.0 |
| 20260830084946 | 55 | 36 | 0.0 | 1.0 | 0.00 | 0.01 | 0.01 | 72 | 1028.9 |
| 20260830084226 | 56 | 35 | 0.0 | 1.0 | 0.00 | 0.01 | 0.01 | 71 | 1028.8 |
| 20260830083725 | 55 | 36 | 0.0 | 1.0 | 0.00 | 0.01 | 0.01 | 72 | 1028.7 |
| 20260830083225 | 55 | 33 | 0.0 | 1.0 | 0.00 | 0.01 | 0.01 | 72 | 1028.6 |
| 20260830082725 | 55 | 33 | 0.0 | 0.0 | 0.00 | 0.01 | 0.01 | 72 | 1028.7 |
| 20260830082224 | 56 | 33 | 0.0 | 0.0 | 0.00 | 0.01 | 0.01 | 72 | 1028.7 |
| 20260830081725 | 56 | 33 | 0.0 | 0.0 | 0.00 | 0.01 | 0.01 | 72 | 1028.6 |
| 20260830081226 | 56 | 33 | 0.0 | 1.0 | 0.00 | 0.01 | 0.01 | 72 | 1028.6 |
| 20260830080725 | 57 | 33 | 0.0 | 1.0 | 0.00 | 0.01 | 0.01 | 71 | 1028.5 |
| 20260830080448 | 58 | 33 | 0.0 | 0.0 | 0.00 | 0.01 | 0.01 | 69 | 1028.5 |
| 20260830075725 | 58 | 33 | 0.0 | 0.0 | 0.00 | 0.01 | 0.01 | 68 | 1028.4 |
| 20260830075226 | 59 | 33 | 0.0 | 0.0 | 0.00 | 0.01 | 0.01 | 65 | 1028.4 |
| 20260830074724 | 60 | 33 | 0.0 | 2.0 | 0.00 | 0.01 | 0.01 | 64 | 1028.4 |
| 20260830074446 | 60 | 33 | 0.0 | 2.0 | 0.00 | 0.01 | 0.01 | 63 | 1028.2 |
| 20260830073941 | 61 | 307 | 0.0 | 2.0 | 0.00 | 0.01 | 0.01 | 63 | 1028.1 |
| 20260830073218 | 61 | 10 | 0.0 | 2.0 | 0.00 | 0.01 | 0.01 | 64 | 1028.1 |
| 20260830072719 | 62 | 49 | 0.0 | 2.0 | 0.00 | 0.01 | 0.01 | 64 | 1028.0 |
| 20260830072219 | 62 | 308 | 0.0 | 2.0 | 0.00 | 0.01 | 0.01 | 65 | 1028.0 |
| 20260830071719 | 62 | 346 | 0.0 | 1.0 | 0.00 | 0.01 | 0.01 | 65 | 1028.0 |
| 20260830071218 | 62 | 16 | 0.0 | 1.0 | 0.00 | 0.01 | 0.01 | 65 | 1027.9 |
| 20260830070939 | 62 | 316 | 0.0 | 5.0 | 0.00 | 0.01 | 0.01 | 65 | 1028.0 |
| 20260830070217 | 63 | 52 | 1.0 | 5.0 | 0.00 | 0.01 | 0.01 | 63 | 1027.9 |
| 20260830065718 | 63 | 329 | 0.0 | 5.0 | 0.00 | 0.01 | 0.01 | 62 | 1027.9 |
| 20260830065216 | 64 | 328 | 0.0 | 3.0 | 0.00 | 0.01 | 0.01 | 61 | 1027.9 |
| 20260830064714 | 65 | 291 | 0.0 | 3.0 | 0.00 | 0.01 | 0.01 | 59 | 1027.9 |
| 20260830064215 | 65 | 7 | 1.0 | 4.0 | 0.00 | 0.01 | 0.01 | 58 | 1027.8 |
| 20260830063712 | 66 | 38 | 2.0 | 5.0 | 0.00 | 0.01 | 0.01 | 57 | 1027.8 |
| 20260830063213 | 66 | 315 | 1.0 | 6.0 | 0.00 | 0.01 | 0.01 | 56 | 1027.8 |
| 20260830062712 | 67 | 349 | 1.0 | 6.0 | 0.00 | 0.01 | 0.01 | 55 | 1027.7 |
| 20260830062212 | 67 | 329 | 1.0 | 4.0 | 0.00 | 0.01 | 0.01 | 54 | 1027.7 |
| 20260830061706 | 67 | 289 | 1.0 | 7.0 | 0.00 | 0.01 | 0.01 | 54 | 1027.6 |
| 20260830061202 | 67 | 12 | 2.0 | 7.0 | 0.00 | 0.01 | 0.01 | 53 | 1027.6 |
| 20260830060655 | 67 | 344 | 2.0 | 5.0 | 0.00 | 0.01 | 0.01 | 52 | 1027.7 |
| 20260830060149 | 67 | 306 | 1.0 | 5.0 | 0.00 | 0.01 | 0.01 | 52 | 1027.7 |
| 20260830055648 | 68 | 293 | 1.0 | 6.0 | 0.00 | 0.01 | 0.01 | 50 | 1027.6 |
| 20260830055148 | 68 | 38 | 1.0 | 6.0 | 0.00 | 0.01 | 0.01 | 51 | 1027.6 |
| 20260830054858 | 67 | 294 | 1.0 | 6.0 | 0.00 | 0.01 | 0.01 | 51 | 1027.7 |
| 20260830054126 | 68 | 306 | 2.0 | 6.0 | 0.00 | 0.01 | 0.01 | 49 | 1027.7 |
| 20260830053619 | 68 | 285 | 2.0 | 6.0 | 0.00 | 0.01 | 0.01 | 48 | 1027.7 |
| 20260830053116 | 68 | 265 | 2.0 | 6.0 | 0.00 | 0.01 | 0.01 | 47 | 1027.7 |
| 20260830052826 | 68 | 286 | 1.0 | 5.0 | 0.00 | 0.01 | 0.01 | 47 | 1027.8 |
| 20260830052058 | 68 | 343 | 2.0 | 7.0 | 0.00 | 0.01 | 0.01 | 45 | 1027.8 |
| 20260830051553 | 68 | 24 | 2.0 | 7.0 | 0.00 | 0.01 | 0.01 | 45 | 1027.9 |
| 20260830051046 | 68 | 281 | 2.0 | 6.0 | 0.00 | 0.01 | 0.01 | 44 | 1027.9 |
| 20260830050543 | 68 | 54 | 1.0 | 6.0 | 0.00 | 0.01 | 0.01 | 44 | 1027.9 |
| 20260830050034 | 69 | 52 | 1.0 | 5.0 | 0.00 | 0.01 | 0.01 | 42 | 1027.9 |
| 20260830045528 | 68 | 268 | 1.0 | 7.0 | 0.00 | 0.01 | 0.01 | 43 | 1028.0 |
| 20260830045024 | 68 | 337 | 1.0 | 7.0 | 0.00 | 0.01 | 0.01 | 42 | 1028.0 |
| 20260830044515 | 68 | 22 | 2.0 | 5.0 | 0.00 | 0.01 | 0.01 | 42 | 1027.9 |
| 20260830044011 | 68 | 38 | 2.0 | 5.0 | 0.00 | 0.01 | 0.01 | 42 | 1027.9 |
| 20260830043951 | 68 | 22 | 1.0 | 5.0 | 0.00 | 0.01 | 0.01 | 42 | 1027.9 |
| 20260830042957 | 68 | 277 | 1.0 | 5.0 | 0.00 | 0.01 | 0.01 | 43 | 1027.9 |
| 20260830042454 | 68 | 306 | 1.0 | 5.0 | 0.00 | 0.01 | 0.01 | 43 | 1028.0 |
| 20260830041946 | 68 | 57 | 1.0 | 6.0 | 0.00 | 0.01 | 0.01 | 44 | 1028.0 |
| 20260830041440 | 68 | 294 | 1.0 | 6.0 | 0.00 | 0.01 | 0.01 | 43 | 1028.0 |
| 20260830040933 | 68 | 323 | 1.0 | 5.0 | 0.00 | 0.01 | 0.01 | 42 | 1028.0 |